Fergus Falls, MN

4:14 PM CST on December 12, 2019 (GMT -0600)
Fergus Falls Municipal-Mickelson

Weather History for KFFM - October, 2019

Change the Weather History Date:

Thursday, October 3, 2019

  Actual Average Record
Temperature  
Mean Temperature 40 °F -  
Max Temperature 42 °F 63 °F 84 °F (2011)
Min Temperature 37 °F 39 °F 21 °F (1993)
Degree Days  
Heating Degree Days 26    
Moisture  
Dew Point 38 °F    
Average Humidity 89    
Maximum Humidity 100    
Minimum Humidity 76    
Precipitation  
Precipitation 0.00 in - - ()
Sea Level Pressure  
Sea Level Pressure 30.24 in    
Wind  
Wind Speed 6 mph ()    
Max Wind Speed 16 mph    
Max Gust Speed 21 mph    
Visibility 8.9 miles    
Events Rain    
Averages and records for this station are not official NWS values.
T = Trace of Precipitation, MM = Missing Value Source: Averaged Metar Reports

Daily Weather History Graph

Daily Weather History Graph

Search for Another Location

Airport or City:

Astronomy

Oct. 03, 2019 Rise Set
Actual Time 7:25 AM CDT 7:01 PM CDT
Civil Twilight 6:55 AM CDT 7:30 PM CDT
Nautical Twilight 6:20 AM CDT 8:05 PM CDT
Astronomical Twilight 5:45 AM CDT 8:40 PM CDT
Moon 1:15 PM CDT (10/3) 10:23 PM CDT (10/3)
Length of Visible Light 12h 35m
Length of Day
11h 35m
Waxing Crescent, 30% of the Moon is Illuminated
Oct 3
Waxing Crescent
Oct 5
First Quarter
Oct 13
Full
Oct 21
Last Quarter
Oct 27
New

Hourly Weather History & Observations

Time (CDT) Temp. Windchill Dew Point Humidity Pressure Visibility Wind Dir Wind Speed Gust Speed Precip Events Conditions
12:15 AM 42.8 °F - 41.0 °F 93% 30.06 in 7.0 mi Calm Calm - 0.01 in Rain Light Rain
12:16 AM 42.8 °F - 41.0 °F 93% 30.06 in 7.0 mi Calm Calm - 0.01 in Rain Light Rain
12:35 AM 42.8 °F 41.1 °F 41.0 °F 93% 30.06 in 10.0 mi NNE 3.5 mph - 0.01 in   Overcast
12:36 AM 42.8 °F 41.1 °F 41.0 °F 93% 30.06 in 10.0 mi NE 3.5 mph - 0.01 in   Overcast
12:58 AM 42.8 °F - 41.0 °F 93% 30.07 in 5.0 mi Calm Calm - N/A Rain Light Rain
1:16 AM 42.8 °F 41.1 °F 41.0 °F 93% 30.07 in 7.0 mi North 3.5 mph - N/A Rain Light Rain
1:35 AM 42.8 °F - 41.0 °F 93% 30.08 in 10.0 mi Calm Calm - N/A   Overcast
1:36 AM 42.8 °F - 41.0 °F 93% 30.08 in 10.0 mi Calm Calm - N/A   Overcast
1:55 AM 42.8 °F 41.1 °F 41.0 °F 93% 30.08 in 10.0 mi NNW 3.5 mph - N/A   Overcast
1:56 AM 42.8 °F - 41.0 °F 93% 30.08 in 10.0 mi Calm Calm - N/A   Overcast
2:15 AM 42.8 °F 41.1 °F 41.0 °F 93% 30.08 in 10.0 mi NNW 3.5 mph - N/A   Overcast
2:19 AM 42.8 °F 41.1 °F 41.0 °F 93% 30.08 in 10.0 mi NW 3.5 mph - N/A   Overcast
2:38 AM 42.8 °F 39.3 °F 41.0 °F 93% 30.09 in 7.0 mi NW 5.8 mph - N/A   Overcast
2:55 AM 42.8 °F 38.6 °F 42.8 °F 100% 30.09 in 5.0 mi NW 6.9 mph - N/A   Overcast
3:15 AM 42.8 °F 38.6 °F 42.8 °F 100% 30.09 in 7.0 mi NW 6.9 mph - N/A   Light Drizzle
3:16 AM 42.8 °F 39.3 °F 42.8 °F 100% 30.09 in 7.0 mi NW 5.8 mph - N/A   Light Drizzle
3:35 AM 42.8 °F 38.6 °F 41.0 °F 93% 30.09 in 7.0 mi NW 6.9 mph - N/A   Overcast
3:36 AM 42.8 °F 38.6 °F 41.0 °F 93% 30.09 in 10.0 mi NW 6.9 mph - N/A   Overcast
3:58 AM 42.8 °F 37.0 °F 41.0 °F 93% 30.09 in 2.5 mi NW 10.4 mph - N/A   Overcast
4:17 AM 41.0 °F 35.8 °F 41.0 °F 100% 30.10 in 2.5 mi NW 8.1 mph - N/A   Overcast
4:36 AM 41.0 °F 34.3 °F 39.2 °F 93% 30.10 in 10.0 mi NW 11.5 mph 16.1 mph N/A   Overcast
4:55 AM 41.0 °F 34.3 °F 39.2 °F 93% 30.11 in 10.0 mi NW 11.5 mph - N/A   Overcast
4:56 AM 41.0 °F 33.9 °F 39.2 °F 93% 30.11 in 10.0 mi NW 12.7 mph - N/A   Overcast
5:15 AM 39.2 °F 32.5 °F 39.2 °F 100% 30.11 in 5.0 mi NW 10.4 mph - N/A   Overcast
5:37 AM 39.2 °F 31.2 °F 39.2 °F 100% 30.12 in 10.0 mi NW 13.8 mph - N/A   Overcast
5:55 AM 39.2 °F 31.6 °F 37.4 °F 93% 30.13 in 10.0 mi NNW 12.7 mph - N/A   Overcast
6:15 AM 39.2 °F 33.0 °F 37.4 °F 93% 30.14 in 7.0 mi NW 9.2 mph - N/A   Overcast
6:35 AM 39.2 °F 32.5 °F 37.4 °F 93% 30.15 in 7.0 mi NW 10.4 mph - N/A   Overcast
6:36 AM 39.2 °F 32.5 °F 37.4 °F 93% 30.14 in 5.0 mi NW 10.4 mph - N/A   Overcast
6:59 AM 37.4 °F 29.3 °F 37.4 °F 100% 30.15 in 7.0 mi NNW 12.7 mph 16.1 mph N/A   Overcast
7:16 AM 37.4 °F 29.8 °F 37.4 °F 100% 30.16 in 10.0 mi NW 11.5 mph - N/A   Overcast
7:36 AM 37.4 °F 29.3 °F 37.4 °F 100% 30.17 in 10.0 mi NW 12.7 mph 19.6 mph N/A   Overcast
7:55 AM 37.4 °F 28.5 °F 37.4 °F 100% 30.17 in 7.0 mi NNW 15.0 mph 20.7 mph N/A   Overcast
8:15 AM 37.4 °F 30.3 °F 37.4 °F 100% 30.18 in 7.0 mi NW 10.4 mph - N/A   Overcast
8:19 AM 37.4 °F 29.8 °F 37.4 °F 100% 30.18 in 7.0 mi NW 11.5 mph - N/A   Overcast
8:38 AM 37.4 °F 29.8 °F 37.4 °F 100% 30.19 in 3.0 mi NW 11.5 mph 19.6 mph N/A   Overcast
8:56 AM 37.4 °F 28.9 °F 37.4 °F 100% 30.20 in 1.2 mi WNW 13.8 mph - N/A   Overcast
9:15 AM 37.4 °F 28.5 °F 37.4 °F 100% 30.20 in 2.0 mi NW 15.0 mph - N/A   Overcast
9:16 AM 37.4 °F 28.2 °F 37.4 °F 100% 30.20 in 2.0 mi NW 16.1 mph - N/A   Overcast
9:58 AM 37.4 °F 30.3 °F 37.4 °F 100% 30.22 in 7.0 mi NW 10.4 mph - N/A   Overcast
10:17 AM 37.4 °F 29.3 °F 37.4 °F 100% 30.23 in 10.0 mi NW 12.7 mph 16.1 mph N/A   Overcast
10:36 AM 37.4 °F 29.8 °F 37.4 °F 100% 30.24 in 10.0 mi NW 11.5 mph - N/A   Overcast
10:55 AM 39.2 °F 31.6 °F 37.4 °F 93% 30.25 in 10.0 mi NNW 12.7 mph 18.4 mph N/A   Overcast
10:56 AM 39.2 °F 32.0 °F 37.4 °F 93% 30.25 in 10.0 mi NW 11.5 mph 18.4 mph N/A   Overcast
11:15 AM 39.2 °F 32.5 °F 37.4 °F 93% 30.25 in 10.0 mi NW 10.4 mph - N/A   Overcast
11:37 AM 39.2 °F 32.0 °F 37.4 °F 93% 30.26 in 10.0 mi NW 11.5 mph - N/A   Overcast
11:55 AM 39.2 °F 32.5 °F 37.4 °F 93% 30.26 in 10.0 mi NW 10.4 mph - N/A   Overcast
12:15 PM 41.0 °F 33.9 °F 37.4 °F 87% 30.26 in 10.0 mi NNW 12.7 mph - N/A   Overcast
12:16 PM 41.0 °F 33.9 °F 37.4 °F 87% 30.26 in 10.0 mi NNW 12.7 mph - N/A   Overcast
12:35 PM 41.0 °F 35.8 °F 37.4 °F 87% 30.27 in 10.0 mi WNW 8.1 mph - N/A   Overcast
12:36 PM 41.0 °F 34.7 °F 37.4 °F 87% 30.27 in 10.0 mi WNW 10.4 mph - N/A   Overcast
12:59 PM 42.8 °F 37.0 °F 35.6 °F 76% 30.28 in 10.0 mi NW 10.4 mph - N/A   Overcast
1:16 PM 42.8 °F 37.5 °F 37.4 °F 81% 30.28 in 10.0 mi NNW 9.2 mph - N/A   Overcast
1:36 PM 41.0 °F 35.2 °F 35.6 °F 81% 30.29 in 10.0 mi WNW 9.2 mph - N/A   Overcast
1:55 PM 42.8 °F 37.5 °F 35.6 °F 76% 30.28 in 10.0 mi NNW 9.2 mph - N/A   Overcast
1:56 PM 42.8 °F 37.0 °F 35.6 °F 76% 30.28 in 10.0 mi NNW 10.4 mph - N/A   Overcast
2:15 PM 42.8 °F 37.0 °F 35.6 °F 76% 30.28 in 10.0 mi NW 10.4 mph - N/A   Overcast
2:19 PM 42.8 °F 38.0 °F 37.4 °F 81% 30.29 in 10.0 mi NW 8.1 mph - N/A   Overcast
2:37 PM 42.8 °F 37.5 °F 35.6 °F 76% 30.29 in 10.0 mi NW 9.2 mph - N/A   Overcast
2:55 PM 42.8 °F 37.5 °F 35.6 °F 76% 30.29 in 10.0 mi NNW 9.2 mph - N/A   Overcast
3:15 PM 42.8 °F 37.5 °F 35.6 °F 76% 30.29 in 10.0 mi NW 9.2 mph - N/A   Overcast
3:16 PM 42.8 °F 37.5 °F 35.6 °F 76% 30.30 in 10.0 mi NW 9.2 mph - N/A   Overcast
3:35 PM 42.8 °F 38.0 °F 35.6 °F 76% 30.30 in 10.0 mi NW 8.1 mph - N/A   Overcast
3:36 PM 42.8 °F 38.0 °F 35.6 °F 76% 30.30 in 10.0 mi NW 8.1 mph - N/A   Overcast
3:59 PM 42.8 °F 37.0 °F 37.4 °F 81% 30.31 in 10.0 mi NNW 10.4 mph - N/A   Overcast
4:17 PM 42.8 °F 38.0 °F 37.4 °F 81% 30.31 in 10.0 mi NW 8.1 mph - N/A   Overcast
4:36 PM 42.8 °F 37.5 °F 37.4 °F 81% 30.32 in 10.0 mi NW 9.2 mph - N/A   Overcast
4:55 PM 42.8 °F 39.3 °F 37.4 °F 81% 30.33 in 10.0 mi NNW 5.8 mph - N/A   Overcast
4:56 PM 42.8 °F 39.3 °F 37.4 °F 81% 30.33 in 10.0 mi NNW 5.8 mph - N/A   Overcast
5:15 PM 42.8 °F 38.0 °F 37.4 °F 81% 30.32 in 10.0 mi NW 8.1 mph - N/A   Overcast
5:19 PM 42.8 °F 38.6 °F 37.4 °F 81% 30.33 in 10.0 mi NW 6.9 mph - N/A   Overcast
5:37 PM 42.8 °F 38.6 °F 37.4 °F 81% 30.34 in 10.0 mi NNW 6.9 mph - N/A   Overcast
5:55 PM 42.8 °F 38.6 °F 37.4 °F 81% 30.34 in 10.0 mi NNW 6.9 mph - N/A   Overcast
6:15 PM 42.8 °F 38.6 °F 37.4 °F 81% 30.34 in 10.0 mi NNW 6.9 mph - N/A   Overcast
6:16 PM 42.8 °F 38.6 °F 37.4 °F 81% 30.34 in 10.0 mi North 6.9 mph - N/A   Overcast
6:35 PM 42.8 °F 39.3 °F 37.4 °F 81% 30.34 in 10.0 mi North 5.8 mph - N/A   Overcast
6:36 PM 42.8 °F 38.0 °F 37.4 °F 81% 30.34 in 10.0 mi NNW 8.1 mph - N/A   Overcast
6:58 PM 42.8 °F 39.3 °F 37.4 °F 81% 30.35 in 10.0 mi NNW 5.8 mph - N/A   Overcast
7:16 PM 41.0 °F 37.1 °F 35.6 °F 81% 30.35 in 10.0 mi NNW 5.8 mph - N/A   Overcast
7:35 PM 41.0 °F - 37.4 °F 87% 30.35 in 10.0 mi Calm Calm - N/A   Overcast
7:36 PM 42.8 °F - 37.4 °F 81% 30.36 in 10.0 mi Calm Calm - N/A   Overcast
7:55 PM 41.0 °F 39.0 °F 37.4 °F 87% 30.36 in 10.0 mi NNW 3.5 mph - N/A   Overcast
7:56 PM 41.0 °F - 37.4 °F 87% 30.36 in 10.0 mi Calm Calm - N/A   Overcast
8:15 PM 42.8 °F - 37.4 °F 81% 30.36 in 10.0 mi Calm Calm - N/A   Overcast
8:36 PM 41.0 °F - 37.4 °F 87% 30.37 in 10.0 mi Calm Calm - N/A   Overcast
8:56 PM 42.8 °F - 37.4 °F 81% 30.37 in 10.0 mi Calm Calm - N/A   Overcast
9:15 PM 41.0 °F - 37.4 °F 87% 30.38 in 10.0 mi Calm Calm - N/A   Overcast
9:16 PM 41.0 °F - 37.4 °F 87% 30.38 in 10.0 mi Calm Calm - N/A   Overcast
9:35 PM 41.0 °F - 37.4 °F 87% 30.38 in 10.0 mi Calm Calm - N/A   Overcast
9:40 PM 41.0 °F 39.0 °F 37.4 °F 87% 30.38 in 10.0 mi NNW 3.5 mph - N/A   Overcast
9:57 PM 41.0 °F - 37.4 °F 87% 30.39 in 10.0 mi Calm Calm - N/A   Overcast
10:15 PM 41.0 °F 38.0 °F 37.4 °F 87% 30.39 in 10.0 mi NNW 4.6 mph - N/A   Overcast
10:35 PM 41.0 °F 39.0 °F 37.4 °F 87% 30.40 in 10.0 mi NNW 3.5 mph - N/A   Overcast
10:55 PM 41.0 °F 38.0 °F 37.4 °F 87% 30.40 in 10.0 mi NNW 4.6 mph - N/A   Overcast
10:56 PM 41.0 °F 38.0 °F 37.4 °F 87% 30.40 in 10.0 mi NNW 4.6 mph - N/A   Overcast
11:18 PM 41.0 °F - 37.4 °F 87% 30.40 in 10.0 mi Calm Calm - N/A   Overcast
11:37 PM 41.0 °F - 37.4 °F 87% 30.40 in 10.0 mi Calm Calm - N/A   Overcast
11:56 PM 41.0 °F - 37.4 °F 87% 30.39 in 10.0 mi Calm Calm - N/A   Overcast